Location: Ca�n Batista
(41.4099°N, 1.7752°E)
Time: 13:07:37
(UTC+00:00)

Cosmos 1844 Rocket - Pass Details

Date: 03 March 2021
Orbit: 826 x 843 km, 71.0° (Epoch: 21 April)

Event Time Altitude Azimuth Distance (km) Brightness Sun altitude
Rises 20:07:22 0° 328° (NNW) 3,371 6.5 -27.1°
Reaches altitude 10° 20:09:57 10° 320° (NW) 2,433 5.8 -27.5°
Maximum altitude 20:15:01 37° 255° (WSW) 1,257 3.9 -28.4°
Enters shadow 20:18:13 20° 200° (SSW) 1,815 4.4 -29.0°
